Regional Weather Roundup
Issued by NWS Memphis, TN

Home | Current Version | Previous Version | Text Only | Print | Product List | Glossary On
Versions: 1 2 3 4 5 6 7 8 9 10 11 12 13 14 15 16 17 18 19 20 21 22 23 24 25 26 27 28 29 30 31 32 33 34 35 36 37 38 39 40 41 42 43 44 45 46 47 48 49 50
000
ASUS44 KMEG 241200
RWRMEG
MEMPHIS CWA HOURLY WEATHER ROUNDUP
NATIONAL WEATHER SERVICE MEMPHIS TN
700 AM CDT TUE OCT 24 2017

...WEST TENNESSEE...

CITY           SKY/WX    TMP DP  RH WIND       PRES   REMARKS
MEMPHIS INTL   CLEAR     52  36  54 W7        30.01R
6HR MIN TEMP:  52; 6HR MAX TEMP:  60;

NWS MEMPHIS      N/A     51 N/A N/A MISG        N/A
JACKSON        CLEAR     50  32  50 W9        29.97R
6HR MIN TEMP:  50; 6HR MAX TEMP:  58;

DYERSBURG        N/A     49  39  68 W8        29.96S
6HR MIN TEMP:  49; 6HR MAX TEMP:  57;



...EASTERN ARKANSAS...

CITY           SKY/WX    TMP DP  RH WIND       PRES   REMARKS
JONESBORO      CLEAR     51  36  56 W8        29.98F
6HR MIN TEMP:  50; 6HR MAX TEMP:  59;

WEST MEMPHIS   CLEAR     50  39  66 CALM      30.01R
6HR MIN TEMP:  50; 6HR MAX TEMP:  58;

BATESVILLE     CLEAR     51  34  52 W7        30.01F
6HR MIN TEMP:  51; 6HR MAX TEMP:  58;

NEWPORT        CLEAR     48  36  63 SW9       30.01S
6HR MIN TEMP:  48; 6HR MAX TEMP:  58;

WALNUT RIDGE   CLEAR     48  35  60 SW9       29.97F
6HR MIN TEMP:  45; 6HR MAX TEMP:  57;

BLYTHEVILLE    CLEAR     50  37  61 W7        29.97S
6HR MIN TEMP:  49; 6HR MAX TEMP:  56;

SEARCY         CLEAR     50  37  61 SW3       30.05S
6HR MIN TEMP:  49; 6HR MAX TEMP:  58;

STUTTGART      CLEAR     49  39  68 W9        30.07S
6HR MIN TEMP:  49; 6HR MAX TEMP:  59;

PINE BLUFF     CLEAR     50  36  58 SW7       30.10S
6HR MIN TEMP:  50; 6HR MAX TEMP:  61;

MONTICELLO     CLEAR     53  38  56 W6        30.11S
6HR MIN TEMP:  53; 6HR MAX TEMP:  61;



...NORTH MISSISSIPPI...

CITY           SKY/WX    TMP DP  RH WIND       PRES   REMARKS
TUPELO         CLEAR     50  42  74 SW3       30.00R
6HR MIN TEMP:  50; 6HR MAX TEMP:  57;

OXFORD         CLEAR     50  39  66 W7        30.04R
OLIVE BRANCH   CLEAR    N/A N/A N/A W8        30.00
TUNICA           N/A    N/A N/A N/A W5        30.05R
CLARKSDALE       N/A     52  41  66 SW9       30.06S
GREENWOOD      CLEAR     49  43  80 CALM      30.07R
6HR MIN TEMP:  46; 6HR MAX TEMP:  57;

COLUMBUS       CLEAR     49  46  88 W9        30.01R
6HR MIN TEMP:  49; 6HR MAX TEMP:  51;

STARKVILLE     CLEAR     50  45  81 W3        30.04R
GOLDEN TRIANGL CLEAR     51  45  79 W7        30.03R
6HR MIN TEMP:  50; 6HR MAX TEMP:  54;



...SOUTHEAST MISSOURI...

CITY           SKY/WX    TMP DP  RH WIND       PRES   REMARKS
KENNETT        CLEAR     45  39  81 SW6       29.94S
MALDEN         CLEAR     50  36  57 W9        29.94S
WEST PLAINS    CLEAR     44  34  67 W8        29.97S
6HR MIN TEMP:  44; 6HR MAX TEMP:  54;

POPLAR BLUFF   CLEAR     48  34  58 SW7       29.92S
6HR MIN TEMP:  47; 6HR MAX TEMP:  57;

CAPE GIRARDEAU CLEAR     47  35  63 W13       29.88S
6HR MIN TEMP:  46; 6HR MAX TEMP:  53;



...NORTHWEST ALABAMA...

CITY           SKY/WX    TMP DP  RH WIND       PRES   REMARKS
MUSCLE SHOALS  CLEAR     51  44  77 W9        29.96S
6HR MIN TEMP:  46; 6HR MAX TEMP:  56;



...MIDDLE TENNESSEE...

CITY           SKY/WX    TMP DP  RH WIND       PRES   REMARKS
NASHVILLE      PTCLDY    51  43  74 W6        29.89R
6HR MIN TEMP:  49; 6HR MAX TEMP:  57;

CLARKSVILLE    CLEAR     50  40  68 W10       29.87R
6HR MIN TEMP:  49; 6HR MAX TEMP:  57;



...WESTERN KENTUCKY...

CITY           SKY/WX    TMP DP  RH WIND       PRES   REMARKS
PADUCAH        PTCLDY    48  35  60 W12       29.86S
6HR MIN TEMP:  47; 6HR MAX TEMP:  57;

FORT CAMPBELL  CLEAR     50  39  67 W12G23    29.87R
6HR MIN TEMP:  48; 6HR MAX TEMP:  56;



...CENTRAL ARKANSAS...

CITY           SKY/WX    TMP DP  RH WIND       PRES   REMARKS
LITTLE ROCK    CLEAR     49  36  61 W10       30.08F
6HR MIN TEMP:  49; 6HR MAX TEMP:  62;



SKY/WX REPORTED AS FAIR MEANS FEW OR NO CLOUDS BELOW
12 THOUSAND FEET.





USA.gov is the U.S. government's official web portal to all federal, state and local government web resources and services.